Weather History for Newark, NJ

Change the Weather History Date:

Wednesday, May 2, 2012

  Actual Average Record
Temperature  
Mean Temperature 55 °F 58 °F  
Max Temperature 58 °F 68 °F 92 °F (2001)
Min Temperature 51 °F 49 °F 35 °F (1943)
Degree Days  
Heating Degree Days 10 7  
Month to date heating degree days 12 15  
Since 1 July heating degree days 3650 4735  
Cooling Degree Days 0 1  
Month to date cooling degree days 0 2  
Year to date cooling degree days 28 14  
Growing Degree Days 2 (Base 50)    
Moisture  
Dew Point 48 °F    
Average Humidity 87    
Maximum Humidity 96    
Minimum Humidity 77    
Precipitation  
Precipitation 0.14 in 0.11 in 0.93 in (1989)
Month to date precipitation 0.54 0.23  
Year to date precipitation 9.26 15.03  
Snow  
Snow 0.00 in 0.00 in T in (1956)
Month to date snowfall 0.0 0.0  
Since 1 July snowfall 8.8 28.5  
Snow Depth 0.00 in    
Sea Level Pressure  
Sea Level Pressure 30.15 in    
Wind  
Wind Speed 5 mph (ESE)    
Max Wind Speed 9 mph    
Max Gust Speed 13 mph    
Visibility 7 miles    
Events Rain    
T = Trace of Precipitation, MM = Missing Value Source: NWS Daily Summary

Daily Weather History Graph

Daily Weather History Graph

Search for Another Location

Airport:

Trip Planner

Search our weather history database for the weather conditions in past years. The results will help you decide how hot, cold, wet, or windy it might be!

Date:

Astronomy

May. 02, 2012 Rise Set
Actual Time 5:53 AM EDT 7:54 PM EDT
Civil Twilight 5:23 AM EDT 8:24 PM EDT
Nautical Twilight 4:47 AM EDT 9:00 PM EDT
Astronomical Twilight 4:07 AM EDT 9:40 PM EDT
Moon 4:02 PM EDT (5/2) 3:23 AM EDT (5/2)
Length of Visible Light 15h 00m
Length of Day
14h 00m
Waxing Gibbous, 83% of the Moon is Illuminated
May 2
Waxing Gibbous
May 5
Full
May 12
Last Quarter
May 20
New
May 28
First Quarter

Hourly Weather History & Observations

Time (EDT) Temp. Dew Point Humidity Pressure Visibility Wind Dir Wind Speed Gust Speed Precip Events Conditions
12:51 AM 57.9 °F 52.0 °F 81% 30.09 in 10.0 mi ENE 4.6 mph - N/A   Mostly Cloudy
1:51 AM 55.9 °F 50.0 °F 80% 30.09 in - North - - N/A   Mostly Cloudy
2:40 AM 53.6 °F 48.2 °F 82% - - North - - N/A   Overcast
2:51 AM 54.0 °F 48.9 °F 83% 30.09 in 9.0 mi East 5.8 mph - N/A   Overcast
3:51 AM 54.0 °F 48.9 °F 83% 30.10 in 9.0 mi ENE 5.8 mph - N/A   Overcast
4:51 AM 54.0 °F 46.9 °F 77% 30.11 in 9.0 mi ENE 6.9 mph - N/A   Overcast
5:51 AM 54.0 °F 46.0 °F 75% 30.13 in 40.0 mi East 5.8 mph - N/A   Overcast
6:36 AM 53.6 °F 46.4 °F 77% 30.13 in 10.0 mi East 6.9 mph - N/A   Overcast
6:51 AM 54.0 °F 46.0 °F 75% 30.13 in 10.0 mi East 5.8 mph - N/A   Overcast
7:51 AM 54.0 °F 46.9 °F 77% 30.14 in 10.0 mi East 6.9 mph - N/A   Overcast
8:28 AM 53.6 °F 46.4 °F 77% 30.15 in 10.0 mi East 5.8 mph - 0.00 in Rain Light Rain
8:51 AM 54.0 °F 46.9 °F 77% 30.16 in 9.0 mi East 5.8 mph - 0.00 in Rain Light Rain
9:51 AM 53.1 °F 48.0 °F 83% 30.16 in 8.0 mi SE 5.8 mph - 0.01 in Rain Light Rain
10:27 AM 51.8 °F 48.2 °F 88% 30.16 in 6.0 mi ESE 3.5 mph - 0.01 in Rain Light Rain
10:46 AM 53.6 °F 48.2 °F 82% 30.16 in 4.0 mi East 6.9 mph - 0.01 in Rain Rain
10:51 AM 53.1 °F 48.0 °F 83% 30.16 in 4.0 mi ESE 3.5 mph - 0.02 in Rain Rain
11:20 AM 51.8 °F 48.2 °F 88% 30.16 in 1.5 mi East 5.8 mph - 0.03 in Rain Light Rain
11:49 AM 51.8 °F 48.2 °F 88% 30.16 in 2.0 mi ESE 4.6 mph - N/A Rain Light Rain
11:51 AM 52.0 °F 48.9 °F 89% 30.16 in 2.0 mi ESE 5.8 mph - 0.05 in Rain Light Rain
12:36 PM 53.6 °F 48.2 °F 82% 30.18 in 5.0 mi South 5.8 mph - 0.00 in Rain Light Rain
12:51 PM 52.0 °F 48.0 °F 86% 30.18 in 6.0 mi SSE 5.8 mph - 0.00 in Rain Light Rain
1:25 PM 51.8 °F 48.2 °F 88% 30.19 in 1.5 mi SSE 4.6 mph - 0.02 in Rain Light Rain
1:51 PM 52.0 °F 50.0 °F 93% 30.17 in 1.5 mi SSE 5.8 mph - 0.05 in Rain Light Rain
2:32 PM 51.8 °F 48.2 °F 88% 30.18 in 5.0 mi SE 5.8 mph - 0.01 in Rain Light Rain
2:51 PM 52.0 °F 48.9 °F 89% 30.19 in 6.0 mi East 5.8 mph - 0.01 in Rain Light Rain
3:51 PM 53.1 °F 50.0 °F 89% 30.16 in 7.0 mi East 6.9 mph - 0.00 in   Overcast
4:51 PM 54.0 °F 48.9 °F 83% 30.17 in 8.0 mi East 3.5 mph - N/A   Overcast
5:23 PM 53.6 °F 48.2 °F 82% 30.17 in 9.0 mi East 3.5 mph - N/A   Overcast
5:51 PM 54.0 °F 48.9 °F 83% 30.17 in 9.0 mi East 4.6 mph - N/A   Overcast
6:42 PM 53.6 °F 48.2 °F 82% 30.17 in 9.0 mi East 4.6 mph - N/A   Overcast
6:51 PM 54.0 °F 48.9 °F 83% 30.17 in 9.0 mi Calm Calm - N/A   Overcast
7:51 PM 53.1 °F 48.0 °F 83% 30.17 in 9.0 mi SE 4.6 mph - N/A   Overcast
8:14 PM 53.6 °F 48.2 °F 82% 30.18 in 10.0 mi South 4.6 mph - N/A   Overcast
8:51 PM 53.1 °F 48.2 °F 84% 30.17 in 10.0 mi SSE 4.6 mph - N/A   Overcast
9:51 PM 53.1 °F 48.0 °F 83% 30.17 in 10.0 mi SE 5.8 mph - N/A   Overcast
10:04 PM 51.8 °F 48.2 °F 88% 30.17 in 10.0 mi SSE 3.5 mph - N/A   Overcast
10:51 PM 53.1 °F 48.0 °F 83% 30.17 in 10.0 mi SE 5.8 mph - N/A   Overcast
11:51 PM 53.1 °F 46.9 °F 80% 30.16 in 10.0 mi SE 5.8 mph - N/A   Overcast